^^
Meteo Knjazevac Station Historical Data
Daily Summary for August 17, 2021 Units:  Metric    English   Both
Daily Weekly Monthly Yearly Custom
  High: Low: Average:
Temperature: 20.1 °C 19.4 °C 19.7 °C
Dew Point: 14.4 °C 13.1 °C 13.8 °C
Humidity: 72% 65% 69%
Wind Speed: 3.2km/h 0km/h 1km/h
Wind Gust: 6.4km/h - -
Wind- - SSW
Pressure: 1017.8 hPa 1016.5 hPa -
Precipitation: 0 mm    
Historical Graphs
 
 
Tabular Data for August 17, 2021
Time Temperature Dew Point Pressure Wind Wind Speed Wind Gust Humidity Rainfall Rate (Hourly) solar Conditions
00:00 19.9 °C 13.6 °C 1017.8 hPa West 3.2 km/h 6.4 km/h 67% 0 mm 0 W/m2
00:10 19.9 °C 13.1 °C 1017.8 hPa Calm   6.4 km/h 65% 0 mm 0 W/m2
00:20 20 °C 13.2 °C 1017.8 hPa Calm   1.6 km/h 65% 0 mm 0 W/m2
00:30 19.9 °C 13.6 °C 1017.8 hPa NW 1.6 km/h 3.2 km/h 67% 0 mm 0 W/m2
00:40 20 °C 13.7 °C 1017.8 hPa Calm   3.2 km/h 67% 0 mm 0 W/m2
00:50 19.9 °C 13.8 °C 1017.8 hPa Calm   3.2 km/h 68% 0 mm 0 W/m2
01:00 19.9 °C 13.8 °C 1017.8 hPa Calm     68% 0 mm 0 W/m2
01:10 19.9 °C 13.6 °C 1017.8 hPa North 1.6 km/h 3.2 km/h 67% 0 mm 0 W/m2
01:20 19.9 °C 13.6 °C 1017.8 hPa NW 1.6 km/h 4.8 km/h 67% 0 mm 0 W/m2
01:30 20 °C 13.7 °C 1017.5 hPa Calm   4.8 km/h 67% 0 mm 0 W/m2
01:40 20 °C 13.7 °C 1017.5 hPa North 1.6 km/h 4.8 km/h 67% 0 mm 0 W/m2
01:50 20.1 °C 13.8 °C 1017.5 hPa North 1.6 km/h 4.8 km/h 67% 0 mm 0 W/m2
02:00 19.9 °C 13.8 °C 1017.5 hPa Calm   4.8 km/h 68% 0 mm 0 W/m2
02:10 19.7 °C 13.6 °C 1017.5 hPa West 1.6 km/h 3.2 km/h 68% 0 mm 0 W/m2
02:20 19.6 °C 13.8 °C 1017.2 hPa Calm   4.8 km/h 69% 0 mm 0 W/m2
02:30 19.5 °C 13.7 °C 1017.2 hPa Calm   3.2 km/h 69% 0 mm 0 W/m2
02:40 19.4 °C 13.6 °C 1017.2 hPa Calm   3.2 km/h 69% 0 mm 0 W/m2
02:50 19.4 °C 13.6 °C 1017.2 hPa North 3.2 km/h 4.8 km/h 69% 0 mm 0 W/m2
03:00 19.4 °C 13.8 °C 1017.2 hPa Calm   3.2 km/h 70% 0 mm 0 W/m2
03:10 19.4 °C 13.8 °C 1017.2 hPa NNW 1.6 km/h 3.2 km/h 70% 0 mm 0 W/m2
03:20 19.4 °C 13.8 °C 1017.2 hPa Calm   3.2 km/h 70% 0 mm 0 W/m2
03:30 19.6 °C 13.8 °C 1016.8 hPa ENE 1.6 km/h 6.4 km/h 69% 0 mm 0 W/m2
03:40 19.6 °C 14 °C 1016.8 hPa NNW 1.6 km/h 4.8 km/h 70% 0 mm 0 W/m2
03:50 19.6 °C 14 °C 1016.8 hPa Calm   3.2 km/h 70% 0 mm 0 W/m2
04:00 19.7 °C 14.1 °C 1016.8 hPa Calm   4.8 km/h 70% 0 mm 0 W/m2
04:10 19.6 °C 14.4 °C 1016.8 hPa NE 1.6 km/h 4.8 km/h 72% 0 mm 0 W/m2
04:20 19.4 °C 14.2 °C 1016.8 hPa NNW 1.6 km/h 4.8 km/h 72% 0 mm 0 W/m2
04:30 19.4 °C 14.2 °C 1016.8 hPa NNW 1.6 km/h 4.8 km/h 72% 0 mm 0 W/m2
04:40 19.4 °C 14.2 °C 1017.2 hPa NNW 1.6 km/h 4.8 km/h 72% 0 mm 0 W/m2
04:50 19.4 °C 14.2 °C 1016.8 hPa NNE 3.2 km/h 6.4 km/h 72% 0 mm 0 W/m2
05:00 19.4 °C 14.2 °C 1016.5 hPa NNE 1.6 km/h 6.4 km/h 72% 0 mm 0 W/m2
Knjazevac, Serbia
Compliments of Weather Underground - 2 mb